This demonstration page uses our WeatherBlox Daily Observations layout. Learn more.

Left ArrowRight Arrow

Hourly Observations for December 10, 2020

Temp ( °F °C ) Dew Point ( °F °C ) Humidity (%) Winds ( mph kmh ) Pressure ( in mb ) Visibility ( mi km ) Precip ( " mm )
12:15 am 00:15 Clear 28 -2 28 -2 100 100 Calm 30.06 1018 7 11.26538 N/A
12:35 am 00:35 Clear 28 -2 28 -2 100 100 Calm 30.06 1018 7 11.26538 N/A
12:55 am 00:55 Clear 28 -2 28 -2 100 100 Calm 30.05 1018 7 11.26538 N/A
1:15 am 01:15 Clear 28 -2 28 -2 100 100 Calm 30.05 1018 7 11.26538 N/A
1:35 am 01:35 Clear 28 -2 28 -2 100 100 Calm 30.06 1018 7 11.26538 N/A
1:55 am 01:55 Clear 28 -2 28 -2 100 100 Calm 30.06 1018 7 11.26538 N/A
2:15 am 02:15 Clear 27 -3 27 -3 100 100 Calm 30.07 1018 7 11.26538 N/A
2:35 am 02:35 Clear 27 -3 27 -3 100 100 Calm 30.08 1018 7 11.26538 N/A
2:55 am 02:55 Clear 27 -3 27 -3 100 100 Calm 30.09 1019 7 11.26538 N/A
3:15 am 03:15 Clear 27 -3 27 -3 100 100 Calm 30.1 1019 7 11.26538 N/A
3:35 am 03:35 Clear 25 -4 25 -4 100 100 Calm 30.1 1019 7 11.26538 N/A
3:55 am 03:55 Clear 25 -4 25 -4 100 100 Calm 30.1 1019 7 11.26538 N/A
4:15 am 04:15 Clear 27 -3 27 -3 100 100 Calm N/A 7 11.26538 N/A
4:35 am 04:35 Clear 25 -4 25 -4 100 100 Calm N/A 7 11.26538 N/A
4:55 am 04:55 Clear 25 -4 25 -4 100 100 Calm 30.1 1019 7 11.26538 N/A
5:15 am 05:15 Clear 25 -4 25 -4 100 100 Calm 30.1 1019 7 11.26538 N/A
5:35 am 05:35 Clear 25 -4 25 -4 100 100 Calm 30.1 1019 7 11.26538 N/A
5:55 am 05:55 Clear 27 -3 27 -3 100 100 Calm 30.11 1020 5 8.0467 N/A
6:15 am 06:15 Clear 27 -3 27 -3 100 100 Calm 30.11 1020 5 8.0467 N/A
6:35 am 06:35 Clear 27 -3 27 -3 100 100 Calm 30.11 1020 4 6.43736 N/A
6:55 am 06:55 Clear 25 -4 25 -4 100 100 Calm 30.11 1020 5 8.0467 N/A
7:15 am 07:15 Clear 25 -4 25 -4 100 100 Calm 30.12 1020 4 6.43736 N/A
7:35 am 07:35 Clear 27 -3 27 -3 100 100 ESE 3 6 30.11 1020 4 6.43736 N/A
7:55 am 07:55 Sunny 27 -3 27 -3 100 100 SE 6 9 30.11 1020 5 8.0467 N/A
8:15 am 08:15 Sunny 30 -1 30 -1 100 100 ESE 5 7 30.1 1019 7 11.26538 N/A
8:35 am 08:35 Sunny 34 1 34 1 100 100 SE 6 9 30.1 1019 10 16.0934 N/A
8:55 am 08:55 Sunny 37 3 36 2 93 93 SE 7 11 30.09 1019 10 16.0934 N/A
9:15 am 09:15 Sunny 39 4 37 3 93 93 SE 7 11 30.09 1019 10 16.0934 N/A
9:35 am 09:35 Sunny 41 5 37 3 87 87 SE 5 7 30.1 1019 10 16.0934 N/A
9:55 am 09:55 Sunny 41 5 37 3 87 87 SSE 6 9 30.1 1019 10 16.0934 N/A
10:15 am 10:15 Sunny 43 6 39 4 87 87 SSE 8 13 30.1 1019 10 16.0934 N/A
10:35 am 10:35 Sunny 46 8 41 5 82 82 SSE 7 11 30.1 1019 10 16.0934 N/A
10:55 am 10:55 Sunny 48 9 41 5 76 76 SSE 10 17 30.08 1019 10 16.0934 N/A
11:15 am 11:15 Sunny 50 10 43 6 76 76 SSE 12 19 30.08 1019 10 16.0934 N/A
11:35 am 11:35 Sunny 52 11 41 5 67 67 SSE 10 17 30.07 1018 10 16.0934 N/A
11:55 am 11:55 Sunny 52 11 43 6 72 72 S 10 17 30.06 1018 10 16.0934 N/A
12:15 pm 12:15 Sunny 54 12 41 5 63 63 SSE 13 20 30.05 1018 10 16.0934 N/A
12:35 pm 12:35 Sunny 54 12 41 5 63 63 S 13 20 30.04 1017 10 16.0934 N/A
12:55 pm 12:55 Sunny 54 12 41 5 63 63 S 13 20 30.03 1017 10 16.0934 N/A
1:15 pm 13:15 Sunny 55 13 43 6 63 63 S 10 17 30.02 1017 10 16.0934 N/A
1:35 pm 13:35 Sunny 55 13 43 6 63 63 SSE 12 19 30.01 1016 10 16.0934 N/A
1:55 pm 13:55 Sunny 57 14 43 6 59 59 SSE 12 19 30.01 1016 10 16.0934 N/A
2:15 pm 14:15 Sunny 57 14 43 6 59 59 SSE 13 20 30 1016 10 16.0934 N/A
2:35 pm 14:35 Sunny 57 14 43 6 59 59 S 9 15 29.99 1015 10 16.0934 N/A
2:55 pm 14:55 Sunny 57 14 43 6 59 59 SSE 9 15 29.99 1015 10 16.0934 N/A
3:15 pm 15:15 Sunny 57 14 43 6 59 59 SSE 10 17 29.98 1015 10 16.0934 N/A
3:35 pm 15:35 Sunny 59 15 43 6 55 55 SSE 9 15 29.96 1015 10 16.0934 N/A
3:55 pm 15:55 Sunny 57 14 43 6 59 59 SSE 12 19 29.97 1015 10 16.0934 N/A
4:15 pm 16:15 Sunny 57 14 43 6 59 59 SSE 8 13 29.97 1015 10 16.0934 N/A
4:35 pm 16:35 Sunny 57 14 43 6 59 59 SSE 8 13 29.97 1015 10 16.0934 N/A
4:55 pm 16:55 Sunny 55 13 43 6 63 63 SSE 8 13 29.97 1015 10 16.0934 N/A
5:15 pm 17:15 Sunny 52 11 43 6 72 72 SSE 6 9 29.98 1015 10 16.0934 N/A
5:35 pm 17:35 Clear 52 11 41 5 67 67 S 5 7 29.99 1015 10 16.0934 N/A
5:55 pm 17:55 Clear 50 10 41 5 71 71 SSE 5 7 29.99 1016 10 16.0934 N/A
6:15 pm 18:15 Clear 50 10 41 5 71 71 SSE 5 7 29.99 1016 10 16.0934 N/A
6:35 pm 18:35 Clear 48 9 41 5 76 76 Calm 30 1016 10 16.0934 N/A
6:55 pm 18:55 Clear 46 8 41 5 82 82 Calm 30.01 1016 10 16.0934 N/A
7:15 pm 19:15 Clear 45 7 39 4 81 81 SSE 5 7 30.01 1016 10 16.0934 N/A
7:35 pm 19:35 Clear 43 6 41 5 93 93 SSE 5 7 30.01 1016 10 16.0934 N/A
7:55 pm 19:55 Clear 45 7 39 4 81 81 SE 7 11 30 1016 10 16.0934 N/A
8:15 pm 20:15 Clear 45 7 41 5 87 87 SE 6 9 30 1016 10 16.0934 N/A
8:35 pm 20:35 Clear 46 8 41 5 82 82 SE 7 11 29.99 1015 10 16.0934 N/A
8:55 pm 20:55 Clear 46 8 41 5 82 82 SSE 8 13 29.98 1015 10 16.0934 N/A
9:15 pm 21:15 Clear 46 8 41 5 82 82 SSE 7 11 29.98 1015 10 16.0934 N/A
9:35 pm 21:35 Clear 45 7 39 4 81 81 SSE 7 11 29.98 1015 10 16.0934 N/A
9:55 pm 21:55 Clear 45 7 39 4 81 81 SSE 6 9 29.98 1015 10 16.0934 N/A
10:15 pm 22:15 Clear 45 7 39 4 81 81 SSE 6 9 29.98 1015 10 16.0934 N/A
10:35 pm 22:35 Clear 45 7 39 4 81 81 SSE 6 9 29.98 1015 10 16.0934 N/A
10:55 pm 22:55 Clear 45 7 39 4 81 81 SSE 7 11 29.98 1015 10 16.0934 N/A
11:15 pm 23:15 Clear 45 7 39 4 81 81 SSE 7 11 29.96 1015 10 16.0934 N/A
11:35 pm 23:35 Clear 45 7 39 4 81 81 SSE 7 11 29.96 1015 10 16.0934 N/A
11:55 pm 23:55 Clear 45 7 41 5 87 87 SSE 8 13 29.96 1015 10 16.0934 N/A

Powered by AerisWeather